| time (UTC) | temp F | wind direction | speed MPH | gust MPH | rain 1hr in | rain 24hr in | rain mn in | humidity % | barometer mb |
| 20260902220701 | 74 | 7 | 4.0 | 5.0 | 0.00 | 0.00 | 0.00 | 32 | 1011.9 |
| 20260902220200 | 74 | 358 | 3.0 | 2.0 | 0.00 | 0.00 | 0.00 | 32 | 1011.9 |
| 20260902215700 | 74 | 18 | 5.0 | 6.0 | 0.00 | 0.00 | 0.00 | 33 | 1011.9 |
| 20260902215201 | 74 | 7 | 5.0 | 6.0 | 0.00 | 0.00 | 0.00 | 33 | 1011.9 |
| 20260902214700 | 74 | 21 | 4.0 | 6.0 | 0.00 | 0.00 | 0.00 | 32 | 1011.9 |
| 20260902214200 | 74 | 12 | 5.0 | 6.0 | 0.00 | 0.00 | 0.00 | 32 | 1011.9 |
| 20260902213700 | 74 | 350 | 4.0 | 5.0 | 0.00 | 0.00 | 0.00 | 33 | 1011.9 |
| 20260902213200 | 74 | 357 | 4.0 | 5.0 | 0.00 | 0.00 | 0.00 | 33 | 1011.9 |
| 20260902212701 | 74 | 344 | 3.0 | 3.0 | 0.00 | 0.00 | 0.00 | 33 | 1011.9 |
| 20260902212200 | 74 | 346 | 3.0 | 2.0 | 0.00 | 0.00 | 0.00 | 33 | 1011.9 |
| 20260902211700 | 74 | 21 | 5.0 | 5.0 | 0.00 | 0.00 | 0.00 | 33 | 1011.9 |
| 20260902211201 | 75 | 3 | 3.0 | 2.0 | 0.00 | 0.00 | 0.00 | 32 | 1012.2 |
| 20260902210700 | 75 | 28 | 6.0 | 7.0 | 0.00 | 0.00 | 0.00 | 32 | 1012.2 |
| 20260902210200 | 74 | 16 | 7.0 | 8.0 | 0.00 | 0.00 | 0.00 | 32 | 1012.2 |
| 20260902205700 | 74 | 7 | 3.0 | 5.0 | 0.00 | 0.00 | 0.00 | 32 | 1012.2 |
| 20260902205200 | 74 | 359 | 5.0 | 5.0 | 0.00 | 0.00 | 0.00 | 32 | 1012.2 |
| 20260902204700 | 75 | 20 | 5.0 | 6.0 | 0.00 | 0.00 | 0.00 | 33 | 1012.2 |
| 20260902204200 | 75 | 20 | 5.0 | 6.0 | 0.00 | 0.00 | 0.00 | 33 | 1012.2 |
| 20260902203702 | 75 | 16 | 6.0 | 7.0 | 0.00 | 0.00 | 0.00 | 33 | 1012.2 |
| 20260902203200 | 75 | 358 | 4.0 | 5.0 | 0.00 | 0.00 | 0.00 | 32 | 1012.2 |
| 20260902202700 | 75 | 20 | 5.0 | 6.0 | 0.00 | 0.00 | 0.00 | 33 | 1012.2 |
| 20260902202201 | 74 | 352 | 4.0 | 6.0 | 0.00 | 0.00 | 0.00 | 35 | 1012.5 |
| 20260902201700 | 74 | 33 | 5.0 | 6.0 | 0.00 | 0.00 | 0.00 | 35 | 1012.2 |
| 20260902201200 | 74 | 2 | 4.0 | 5.0 | 0.00 | 0.00 | 0.00 | 36 | 1012.2 |
| 20260902200700 | 74 | 19 | 5.0 | 6.0 | 0.00 | 0.00 | 0.00 | 37 | 1012.2 |
| 20260902200201 | 75 | 23 | 5.0 | 6.0 | 0.00 | 0.00 | 0.00 | 37 | 1012.5 |
| 20260902195700 | 75 | 6 | 4.0 | 5.0 | 0.00 | 0.00 | 0.00 | 37 | 1012.5 |
| 20260902195200 | 74 | 19 | 5.0 | 6.0 | 0.00 | 0.00 | 0.00 | 38 | 1012.5 |
| 20260902194700 | 74 | 26 | 5.0 | 6.0 | 0.00 | 0.00 | 0.00 | 40 | 1012.5 |
| 20260902194200 | 74 | 26 | 6.0 | 7.0 | 0.00 | 0.00 | 0.00 | 39 | 1012.5 |
| 20260902193700 | 74 | 24 | 6.0 | 7.0 | 0.00 | 0.00 | 0.00 | 39 | 1012.5 |
| 20260902193202 | 74 | 23 | 6.0 | 7.0 | 0.00 | 0.00 | 0.00 | 39 | 1012.2 |
| 20260902192700 | 75 | 19 | 8.0 | 8.0 | 0.00 | 0.00 | 0.00 | 39 | 1012.5 |
| 20260902192202 | 75 | 16 | 5.0 | 5.0 | 0.00 | 0.00 | 0.00 | 40 | 1012.5 |
| 20260902191701 | 75 | 337 | 5.0 | 5.0 | 0.00 | 0.00 | 0.00 | 41 | 1012.5 |
| 20260902191200 | 74 | 15 | 4.0 | 5.0 | 0.00 | 0.00 | 0.00 | 41 | 1012.5 |
| 20260902190700 | 74 | 354 | 4.0 | 3.0 | 0.00 | 0.00 | 0.00 | 41 | 1012.5 |
| 20260902190200 | 74 | 355 | 5.0 | 6.0 | 0.00 | 0.00 | 0.00 | 41 | 1012.5 |
| 20260902185701 | 75 | 350 | 4.0 | 5.0 | 0.00 | 0.00 | 0.00 | 40 | 1012.5 |
| 20260902185202 | 75 | 28 | 3.0 | 5.0 | 0.00 | 0.00 | 0.00 | 40 | 1012.5 |
| 20260902184701 | 75 | 341 | 5.0 | 6.0 | 0.00 | 0.00 | 0.00 | 38 | 1012.2 |
| 20260902184200 | 75 | 348 | 7.0 | 7.0 | 0.00 | 0.00 | 0.00 | 37 | 1012.5 |
| 20260902183700 | 75 | 343 | 7.0 | 8.0 | 0.00 | 0.00 | 0.00 | 38 | 1012.5 |
| 20260902183202 | 75 | 343 | 7.0 | 8.0 | 0.00 | 0.00 | 0.00 | 38 | 1012.5 |
| 20260902182702 | 75 | 351 | 6.0 | 7.0 | 0.00 | 0.00 | 0.00 | 38 | 1012.2 |
| 20260902182200 | 75 | 338 | 5.0 | 6.0 | 0.00 | 0.00 | 0.00 | 38 | 1012.2 |
| 20260902181700 | 75 | 343 | 5.0 | 6.0 | 0.00 | 0.00 | 0.00 | 39 | 1012.2 |
| 20260902181201 | 76 | 352 | 6.0 | 7.0 | 0.00 | 0.00 | 0.00 | 38 | 1012.2 |
| 20260902180700 | 76 | 341 | 6.0 | 7.0 | 0.00 | 0.00 | 0.00 | 39 | 1012.2 |
| 20260902180201 | 76 | 355 | 6.0 | 7.0 | 0.00 | 0.00 | 0.00 | 40 | 1012.2 |
| 20260902175701 | 76 | 342 | 5.0 | 6.0 | 0.00 | 0.00 | 0.00 | 40 | 1012.2 |
| 20260902175201 | 76 | 344 | 7.0 | 8.0 | 0.00 | 0.00 | 0.00 | 41 | 1011.9 |
| 20260902174700 | 76 | 17 | 6.0 | 7.0 | 0.00 | 0.00 | 0.00 | 42 | 1011.9 |
| 20260902174200 | 76 | 13 | 8.0 | 9.0 | 0.00 | 0.00 | 0.00 | 41 | 1011.9 |
| 20260902173701 | 76 | 350 | 9.0 | 10.0 | 0.00 | 0.00 | 0.00 | 41 | 1012.2 |
| 20260902173201 | 76 | 326 | 7.0 | 8.0 | 0.00 | 0.00 | 0.00 | 43 | 1011.9 |
| 20260902172701 | 76 | 358 | 8.0 | 9.0 | 0.00 | 0.00 | 0.00 | 44 | 1011.9 |
| 20260902172201 | 76 | 31 | 6.0 | 7.0 | 0.00 | 0.00 | 0.00 | 45 | 1011.9 |
| 20260902171700 | 76 | 352 | 5.0 | 7.0 | 0.00 | 0.00 | 0.00 | 45 | 1011.9 |
| 20260902171200 | 76 | 358 | 7.0 | 7.0 | 0.00 | 0.00 | 0.00 | 46 | 1011.9 |
| 20260902170700 | 77 | 351 | 6.0 | 7.0 | 0.00 | 0.00 | 0.00 | 45 | 1011.9 |
| 20260902170201 | 76 | 345 | 6.0 | 6.0 | 0.00 | 0.00 | 0.00 | 45 | 1011.9 |
| 20260902165701 | 77 | 334 | 7.0 | 8.0 | 0.00 | 0.00 | 0.00 | 45 | 1011.9 |
| 20260902165202 | 77 | 333 | 6.0 | 6.0 | 0.00 | 0.00 | 0.00 | 45 | 1011.9 |
| 20260902164701 | 77 | 343 | 5.0 | 6.0 | 0.00 | 0.00 | 0.00 | 45 | 1011.9 |
| 20260902164203 | 77 | 341 | 5.0 | 6.0 | 0.00 | 0.00 | 0.00 | 45 | 1011.5 |
| 20260902163700 | 77 | 322 | 5.0 | 6.0 | 0.00 | 0.00 | 0.00 | 45 | 1011.5 |
| 20260902163201 | 77 | 319 | 5.0 | 6.0 | 0.00 | 0.00 | 0.00 | 45 | 1011.5 |
| 20260902162701 | 77 | 259 | 6.0 | 6.0 | 0.00 | 0.00 | 0.00 | 45 | 1011.5 |
| 20260902162200 | 77 | 327 | 7.0 | 9.0 | 0.00 | 0.00 | 0.00 | 46 | 1011.5 |
| 20260902161700 | 77 | 324 | 7.0 | 8.0 | 0.00 | 0.00 | 0.00 | 46 | 1011.5 |
| 20260902161201 | 77 | 294 | 5.0 | 6.0 | 0.00 | 0.00 | 0.00 | 46 | 1011.5 |
| 20260902160700 | 78 | 296 | 7.0 | 7.0 | 0.00 | 0.00 | 0.00 | 46 | 1011.9 |
| 20260902160201 | 78 | 327 | 5.0 | 6.0 | 0.00 | 0.00 | 0.00 | 46 | 1011.9 |
| 20260902155700 | 78 | 305 | 7.0 | 7.0 | 0.00 | 0.00 | 0.00 | 46 | 1011.5 |
| 20260902155201 | 78 | 227 | 4.0 | 6.0 | 0.00 | 0.00 | 0.00 | 44 | 1011.9 |
| 20260902154701 | 79 | 278 | 6.0 | 8.0 | 0.00 | 0.00 | 0.00 | 45 | 1011.5 |
| 20260902154201 | 79 | 314 | 7.0 | 8.0 | 0.00 | 0.00 | 0.00 | 40 | 1011.5 |
| 20260902153700 | 79 | 190 | 2.0 | 3.0 | 0.00 | 0.00 | 0.00 | 39 | 1011.5 |
| 20260902153200 | 80 | 288 | 5.0 | 7.0 | 0.00 | 0.00 | 0.00 | 39 | 1011.5 |
| 20260902152700 | 80 | 281 | 3.0 | 5.0 | 0.00 | 0.00 | 0.00 | 38 | 1011.5 |
| 20260902152200 | 82 | 254 | 3.0 | 3.0 | 0.00 | 0.00 | 0.00 | 36 | 1011.5 |
| 20260902151700 | 83 | 286 | 2.0 | 3.0 | 0.00 | 0.00 | 0.00 | 23 | 1011.5 |
| 20260902151200 | 83 | 204 | 3.0 | 3.0 | 0.00 | 0.00 | 0.00 | 23 | 1011.5 |
| 20260902150702 | 83 | 127 | 1.0 | 1.0 | 0.00 | 0.00 | 0.00 | 23 | 1011.5 |
| 20260902150203 | 84 | 328 | 7.0 | 7.0 | 0.00 | 0.00 | 0.00 | 22 | 1011.5 |
| 20260902145701 | 84 | 4 | 1.0 | 1.0 | 0.00 | 0.00 | 0.00 | 22 | 1011.9 |
| 20260902145201 | 84 | 138 | 2.0 | 2.0 | 0.00 | 0.00 | 0.00 | 23 | 1011.5 |
| 20260902144700 | 84 | 146 | 6.0 | 7.0 | 0.00 | 0.00 | 0.00 | 22 | 1011.5 |
| 20260902144201 | 84 | 132 | 2.0 | 2.0 | 0.00 | 0.00 | 0.00 | 23 | 1011.5 |
| 20260902143700 | 84 | 119 | 4.0 | 5.0 | 0.00 | 0.00 | 0.00 | 23 | 1011.5 |
| 20260902143201 | 85 | 281 | 2.0 | 2.0 | 0.00 | 0.00 | 0.00 | 22 | 1011.5 |
| 20260902142701 | 85 | 300 | 4.0 | 6.0 | 0.00 | 0.00 | 0.00 | 22 | 1011.9 |
| 20260902142200 | 85 | 207 | 4.0 | 5.0 | 0.00 | 0.00 | 0.00 | 22 | 1011.9 |
| 20260902141701 | 84 | 118 | 1.0 | 1.0 | 0.00 | 0.00 | 0.00 | 23 | 1011.5 |
| 20260902141201 | 86 | 134 | 6.0 | 7.0 | 0.00 | 0.00 | 0.00 | 22 | 1011.5 |
| 20260902140700 | 86 | 223 | 1.0 | 1.0 | 0.00 | 0.00 | 0.00 | 22 | 1011.5 |
| 20260902140202 | 86 | 157 | 1.0 | 1.0 | 0.00 | 0.00 | 0.00 | 22 | 1011.5 |
| 20260902135714 | 84 | 302 | 1.0 | 1.0 | 0.00 | 0.00 | 0.00 | 23 | 1011.5 |
| 20260902135201 | 84 | 103 | 3.0 | 3.0 | 0.00 | 0.00 | 0.00 | 23 | 1011.5 |
| 20260902134702 | 86 | 216 | 2.0 | 2.0 | 0.00 | 0.00 | 0.00 | 22 | 1011.9 |
| 20260902134201 | 86 | 240 | 3.0 | 5.0 | 0.00 | 0.00 | 0.00 | 22 | 1011.9 |
| 20260902133700 | 85 | 236 | 2.0 | 2.0 | 0.00 | 0.00 | 0.00 | 23 | 1011.9 |
| 20260902133200 | 86 | 33 | 5.0 | 7.0 | 0.00 | 0.00 | 0.00 | 23 | 1011.9 |
| 20260902132700 | 85 | 252 | 1.0 | 2.0 | 0.00 | 0.00 | 0.00 | 23 | 1011.9 |
| 20260902132200 | 84 | 174 | 7.0 | 7.0 | 0.00 | 0.00 | 0.00 | 23 | 1011.9 |
| 20260902131701 | 84 | 186 | 6.0 | 8.0 | 0.00 | 0.00 | 0.00 | 23 | 1011.9 |
| 20260902131202 | 84 | 231 | 5.0 | 6.0 | 0.00 | 0.00 | 0.00 | 24 | 1011.9 |
| 20260902130701 | 85 | 220 | 6.0 | 7.0 | 0.00 | 0.00 | 0.00 | 24 | 1011.5 |
| 20260902130201 | 85 | 298 | 2.0 | 2.0 | 0.00 | 0.00 | 0.00 | 23 | 1011.9 |
| 20260902125702 | 86 | 208 | 3.0 | 3.0 | 0.00 | 0.00 | 0.00 | 23 | 1011.9 |
| 20260902125200 | 85 | 205 | 4.0 | 5.0 | 0.00 | 0.00 | 0.00 | 23 | 1011.9 |
| 20260902124701 | 85 | 219 | 3.0 | 3.0 | 0.00 | 0.00 | 0.00 | 24 | 1011.9 |
| 20260902124200 | 84 | 188 | 4.0 | 5.0 | 0.00 | 0.00 | 0.00 | 24 | 1011.9 |
| 20260902123700 | 84 | 170 | 3.0 | 3.0 | 0.00 | 0.00 | 0.00 | 24 | 1011.9 |
| 20260902123200 | 84 | 320 | 7.0 | 8.0 | 0.00 | 0.00 | 0.00 | 24 | 1011.9 |
| 20260902122700 | 83 | 223 | 3.0 | 5.0 | 0.00 | 0.00 | 0.00 | 24 | 1012.2 |
| 20260902122201 | 83 | 130 | 7.0 | 9.0 | 0.00 | 0.00 | 0.00 | 24 | 1011.9 |
| 20260902121700 | 84 | 310 | 8.0 | 9.0 | 0.00 | 0.00 | 0.00 | 24 | 1012.2 |
| 20260902121207 | 84 | 125 | 10.0 | 13.0 | 0.00 | 0.00 | 0.00 | 24 | 1012.2 |
| 20260902120700 | 84 | 185 | 8.0 | 9.0 | 0.00 | 0.00 | 0.00 | 24 | 1012.2 |
| 20260902120200 | 84 | 86 | 4.0 | 6.0 | 0.00 | 0.00 | 0.00 | 23 | 1012.2 |
| 20260902115701 | 84 | 86 | 4.0 | 6.0 | 0.00 | 0.00 | 0.00 | 23 | 1012.2 |
| 20260902115201 | 84 | 86 | 4.0 | 6.0 | 0.00 | 0.00 | 0.00 | 23 | 1012.2 |
| 20260902114700 | 84 | 233 | 4.0 | 5.0 | 0.00 | 0.00 | 0.00 | 23 | 1012.2 |
| 20260902114200 | 86 | 122 | 7.0 | 8.0 | 0.00 | 0.00 | 0.00 | 22 | 1012.5 |
| 20260902113702 | 87 | 118 | 5.0 | 6.0 | 0.00 | 0.00 | 0.00 | 21 | 1012.2 |
| 20260902113200 | 84 | 337 | 1.0 | 1.0 | 0.00 | 0.00 | 0.00 | 23 | 1012.2 |
| 20260902112700 | 84 | 163 | 2.0 | 2.0 | 0.00 | 0.00 | 0.00 | 23 | 1012.5 |
| 20260902112200 | 84 | 215 | 5.0 | 8.0 | 0.00 | 0.00 | 0.00 | 23 | 1012.5 |
| 20260902111700 | 85 | 150 | 4.0 | 5.0 | 0.00 | 0.00 | 0.00 | 23 | 1012.5 |
| 20260902111203 | 85 | 196 | 5.0 | 7.0 | 0.00 | 0.00 | 0.00 | 22 | 1012.5 |
| 20260902110701 | 85 | 196 | 6.0 | 7.0 | 0.00 | 0.00 | 0.00 | 23 | 1012.5 |
| 20260902110200 | 83 | 282 | 2.0 | 3.0 | 0.00 | 0.00 | 0.00 | 24 | 1012.2 |
| 20260902105700 | 83 | 201 | 2.0 | 3.0 | 0.00 | 0.00 | 0.00 | 24 | 1012.5 |
| 20260902105200 | 83 | 327 | 2.0 | 2.0 | 0.00 | 0.00 | 0.00 | 24 | 1012.5 |
| 20260902104711 | 84 | 246 | 9.0 | 14.0 | 0.00 | 0.00 | 0.00 | 23 | 1012.9 |
| 20260902104200 | 84 | 104 | 6.0 | 6.0 | 0.00 | 0.00 | 0.00 | 23 | 1012.9 |
| 20260902103700 | 83 | 132 | 2.0 | 3.0 | 0.00 | 0.00 | 0.00 | 24 | 1012.5 |
| 20260902103201 | 83 | 219 | 6.0 | 7.0 | 0.00 | 0.00 | 0.00 | 24 | 1012.9 |
| 20260902102702 | 83 | 203 | 11.0 | 13.0 | 0.00 | 0.00 | 0.00 | 24 | 1012.5 |
| 20260902102200 | 83 | 201 | 8.0 | 10.0 | 0.00 | 0.00 | 0.00 | 24 | 1012.9 |
| 20260902101702 | 83 | 201 | 3.0 | 5.0 | 0.00 | 0.00 | 0.00 | 24 | 1012.5 |
| 20260902101202 | 83 | 176 | 9.0 | 11.0 | 0.00 | 0.00 | 0.00 | 25 | 1012.5 |
| 20260902100701 | 82 | 213 | 4.0 | 5.0 | 0.00 | 0.00 | 0.00 | 25 | 1012.5 |
| 20260902100201 | 82 | 117 | 1.0 | 2.0 | 0.00 | 0.00 | 0.00 | 25 | 1012.5 |
| 20260902095700 | 82 | 190 | 13.0 | 15.0 | 0.00 | 0.00 | 0.00 | 25 | 1012.9 |
| 20260902095200 | 82 | 201 | 9.0 | 10.0 | 0.00 | 0.00 | 0.00 | 25 | 1012.9 |
| 20260902094701 | 82 | 189 | 4.0 | 5.0 | 0.00 | 0.00 | 0.00 | 25 | 1012.9 |
| 20260902094201 | 82 | 216 | 10.0 | 13.0 | 0.00 | 0.00 | 0.00 | 26 | 1012.9 |
| 20260902093700 | 82 | 151 | 9.0 | 11.0 | 0.00 | 0.00 | 0.00 | 26 | 1012.5 |
| 20260902093201 | 79 | 104 | 4.0 | 5.0 | 0.00 | 0.00 | 0.00 | 31 | 1013.2 |
| 20260902092700 | 79 | 104 | 4.0 | 5.0 | 0.00 | 0.00 | 0.00 | 31 | 1013.2 |
| 20260902092201 | 79 | 104 | 4.0 | 5.0 | 0.00 | 0.00 | 0.00 | 31 | 1013.2 |
| 20260902091700 | 79 | 104 | 4.0 | 5.0 | 0.00 | 0.00 | 0.00 | 31 | 1013.2 |
| 20260902091201 | 79 | 104 | 4.0 | 5.0 | 0.00 | 0.00 | 0.00 | 31 | 1013.2 |
| 20260902090701 | 79 | 104 | 4.0 | 5.0 | 0.00 | 0.00 | 0.00 | 31 | 1013.2 |
| 20260902090201 | 79 | 104 | 4.0 | 5.0 | 0.00 | 0.00 | 0.00 | 31 | 1013.2 |
| 20260902085700 | 79 | 104 | 4.0 | 5.0 | 0.00 | 0.00 | 0.00 | 31 | 1013.2 |
| 20260902085200 | 79 | 104 | 4.0 | 5.0 | 0.00 | 0.00 | 0.00 | 31 | 1013.2 |
| 20260902084701 | 79 | 104 | 4.0 | 5.0 | 0.00 | 0.00 | 0.00 | 31 | 1013.2 |
| 20260902084200 | 79 | 104 | 4.0 | 5.0 | 0.00 | 0.00 | 0.00 | 31 | 1013.2 |
| 20260902083701 | 79 | 104 | 4.0 | 5.0 | 0.00 | 0.00 | 0.00 | 31 | 1013.2 |
| 20260902083200 | 79 | 104 | 4.0 | 5.0 | 0.00 | 0.00 | 0.00 | 31 | 1013.2 |
| 20260902082700 | 79 | 104 | 4.0 | 5.0 | 0.00 | 0.00 | 0.00 | 31 | 1013.2 |
| 20260902082200 | 79 | 104 | 4.0 | 5.0 | 0.00 | 0.00 | 0.00 | 31 | 1013.2 |
| 20260902081700 | 79 | 104 | 4.0 | 5.0 | 0.00 | 0.00 | 0.00 | 31 | 1013.2 |
| 20260902081201 | 79 | 104 | 4.0 | 5.0 | 0.00 | 0.00 | 0.00 | 31 | 1013.2 |
| 20260902080700 | 79 | 104 | 4.0 | 5.0 | 0.00 | 0.00 | 0.00 | 31 | 1013.2 |
| 20260902080200 | 79 | 104 | 4.0 | 5.0 | 0.00 | 0.00 | 0.00 | 31 | 1013.2 |
| 20260902075700 | 79 | 104 | 4.0 | 5.0 | 0.00 | 0.00 | 0.00 | 31 | 1013.2 |
| 20260902075201 | 79 | 104 | 4.0 | 5.0 | 0.00 | 0.00 | 0.00 | 31 | 1013.2 |
| 20260902074701 | 79 | 104 | 4.0 | 5.0 | 0.00 | 0.00 | 0.00 | 31 | 1013.2 |
| 20260902074201 | 79 | 191 | 5.0 | 8.0 | 0.00 | 0.00 | 0.00 | 31 | 1013.2 |
| 20260902073700 | 79 | 123 | 3.0 | 3.0 | 0.00 | 0.00 | 0.00 | 30 | 1013.2 |
| 20260902073200 | 79 | 229 | 5.0 | 7.0 | 0.00 | 0.00 | 0.00 | 30 | 1013.2 |
| 20260902072700 | 79 | 138 | 5.0 | 6.0 | 0.00 | 0.00 | 0.00 | 30 | 1013.2 |
| 20260902072200 | 79 | 198 | 3.0 | 3.0 | 0.00 | 0.00 | 0.00 | 30 | 1013.2 |
| 20260902071700 | 78 | 186 | 4.0 | 5.0 | 0.00 | 0.00 | 0.00 | 30 | 1013.2 |
| 20260902071200 | 78 | 154 | 5.0 | 6.0 | 0.00 | 0.00 | 0.00 | 29 | 1013.2 |
| 20260902070700 | 78 | 176 | 4.0 | 5.0 | 0.00 | 0.00 | 0.00 | 28 | 1013.2 |
| 20260902070201 | 78 | 123 | 3.0 | 3.0 | 0.00 | 0.00 | 0.00 | 29 | 1013.5 |
| 20260902065701 | 78 | 159 | 2.0 | 2.0 | 0.00 | 0.00 | 0.00 | 29 | 1013.2 |
| 20260902065200 | 77 | 187 | 3.0 | 6.0 | 0.00 | 0.00 | 0.00 | 28 | 1013.5 |
| 20260902064700 | 77 | 208 | 1.0 | 1.0 | 0.00 | 0.00 | 0.00 | 29 | 1013.5 |
| 20260902064204 | 77 | 192 | 6.0 | 7.0 | 0.00 | 0.00 | 0.00 | 28 | 1013.5 |
| 20260902063700 | 77 | 206 | 3.0 | 3.0 | 0.00 | 0.00 | 0.00 | 27 | 1013.2 |
| 20260902063201 | 77 | 207 | 3.0 | 5.0 | 0.00 | 0.00 | 0.00 | 27 | 1013.5 |
| 20260902062701 | 77 | 225 | 1.0 | 1.0 | 0.00 | 0.00 | 0.00 | 27 | 1013.5 |
| 20260902062201 | 77 | 197 | 3.0 | 5.0 | 0.00 | 0.00 | 0.00 | 24 | 1013.5 |
| 20260902061700 | 77 | 200 | 4.0 | 6.0 | 0.00 | 0.00 | 0.00 | 22 | 1013.5 |
| 20260902061201 | 78 | 218 | 5.0 | 7.0 | 0.00 | 0.00 | 0.00 | 23 | 1013.2 |
| 20260902060700 | 79 | 194 | 2.0 | 2.0 | 0.00 | 0.00 | 0.00 | 21 | 1013.2 |
| 20260902055711 | 81 | 203 | 2.0 | 2.0 | 0.00 | 0.00 | 0.00 | 18 | 1013.2 |
| 20260902055200 | 81 | 179 | 2.0 | 1.0 | 0.00 | 0.00 | 0.00 | 17 | 1012.9 |
| 20260902054700 | 81 | 179 | 2.0 | 2.0 | 0.00 | 0.00 | 0.00 | 17 | 1012.9 |
| 20260902054202 | 80 | 98 | 1.0 | 1.0 | 0.00 | 0.00 | 0.00 | 17 | 1012.9 |
| 20260902053701 | 81 | 78 | 1.0 | 1.0 | 0.00 | 0.00 | 0.00 | 17 | 1013.2 |
| 20260902053201 | 79 | 47 | 0.0 | 0.0 | 0.00 | 0.00 | 0.00 | 18 | 1013.2 |
| 20260902052700 | 77 | 7 | 1.0 | 1.0 | 0.00 | 0.00 | 0.00 | 20 | 1013.2 |
| 20260902052201 | 76 | 52 | 3.0 | 3.0 | 0.00 | 0.00 | 0.00 | 19 | 1013.2 |
| 20260902051701 | 76 | 354 | 3.0 | 3.0 | 0.00 | 0.00 | 0.00 | 21 | 1012.9 |
| 20260902051200 | 75 | 347 | 5.0 | 5.0 | 0.00 | 0.00 | 0.00 | 21 | 1013.2 |
| 20260902050700 | 74 | 23 | 6.0 | 7.0 | 0.00 | 0.00 | 0.00 | 22 | 1012.9 |
| 20260902050200 | 74 | 61 | 5.0 | 6.0 | 0.00 | 0.00 | 0.00 | 23 | 1013.2 |
| 20260902045700 | 73 | 342 | 3.0 | 3.0 | 0.00 | 0.00 | 0.00 | 23 | 1013.2 |
| 20260902045200 | 73 | 281 | 5.0 | 6.0 | 0.00 | 0.00 | 0.00 | 24 | 1012.9 |
| 20260902044700 | 73 | 15 | 6.0 | 7.0 | 0.00 | 0.00 | 0.00 | 24 | 1013.2 |
| 20260902044200 | 72 | 31 | 5.0 | 7.0 | 0.00 | 0.00 | 0.00 | 25 | 1012.9 |
| 20260902043700 | 71 | 21 | 6.0 | 8.0 | 0.00 | 0.00 | 0.00 | 26 | 1013.2 |
| 20260902043200 | 71 | 26 | 7.0 | 9.0 | 0.00 | 0.00 | 0.00 | 26 | 1013.2 |
| 20260902042700 | 71 | 18 | 7.0 | 9.0 | 0.00 | 0.00 | 0.00 | 27 | 1013.2 |
| 20260902042203 | 70 | 31 | 7.0 | 9.0 | 0.00 | 0.00 | 0.00 | 27 | 1013.2 |
| 20260902041700 | 70 | 56 | 9.0 | 10.0 | 0.00 | 0.00 | 0.00 | 27 | 1013.2 |
| 20260902041200 | 69 | 37 | 5.0 | 6.0 | 0.00 | 0.00 | 0.00 | 27 | 1013.2 |
| 20260902040700 | 69 | 14 | 7.0 | 8.0 | 0.00 | 0.00 | 0.00 | 28 | 1012.9 |
| 20260902040200 | 68 | 28 | 4.0 | 6.0 | 0.00 | 0.00 | 0.00 | 29 | 1013.2 |
| 20260902035700 | 68 | 28 | 6.0 | 7.0 | 0.00 | 0.00 | 0.00 | 29 | 1012.9 |
| 20260902035200 | 68 | 23 | 5.0 | 7.0 | 0.00 | 0.00 | 0.00 | 29 | 1012.9 |
| 20260902034700 | 68 | 26 | 8.0 | 8.0 | 0.00 | 0.00 | 0.00 | 29 | 1012.9 |
| 20260902034201 | 68 | 155 | 5.0 | 6.0 | 0.00 | 0.00 | 0.00 | 28 | 1012.9 |
| 20260902033700 | 68 | 20 | 7.0 | 8.0 | 0.00 | 0.00 | 0.00 | 28 | 1012.9 |
| 20260902033200 | 68 | 20 | 7.0 | 8.0 | 0.00 | 0.00 | 0.00 | 28 | 1012.9 |
| 20260902032700 | 68 | 8 | 8.0 | 9.0 | 0.00 | 0.00 | 0.00 | 29 | 1012.9 |
| 20260902032203 | 68 | 27 | 9.0 | 9.0 | 0.00 | 0.00 | 0.00 | 29 | 1012.9 |
| 20260902031700 | 68 | 29 | 9.0 | 9.0 | 0.00 | 0.00 | 0.00 | 28 | 1012.5 |
| 20260902031201 | 68 | 29 | 10.0 | 10.0 | 0.00 | 0.00 | 0.00 | 28 | 1012.5 |
| 20260902030700 | 68 | 28 | 6.0 | 7.0 | 0.00 | 0.00 | 0.00 | 27 | 1012.5 |
| 20260902030200 | 69 | 56 | 3.0 | 3.0 | 0.00 | 0.00 | 0.00 | 27 | 1012.5 |
| 20260902025701 | 68 | 20 | 7.0 | 7.0 | 0.00 | 0.00 | 0.00 | 27 | 1012.5 |
| 20260902025200 | 68 | 18 | 9.0 | 9.0 | 0.00 | 0.00 | 0.00 | 28 | 1012.5 |
| 20260902024700 | 67 | 17 | 7.0 | 7.0 | 0.00 | 0.00 | 0.00 | 27 | 1012.5 |
| 20260902024201 | 68 | 10 | 3.0 | 3.0 | 0.00 | 0.00 | 0.00 | 27 | 1012.5 |
| 20260902023700 | 67 | 25 | 7.0 | 7.0 | 0.00 | 0.00 | 0.00 | 25 | 1012.5 |
| 20260902023200 | 68 | 19 | 3.0 | 3.0 | 0.00 | 0.00 | 0.00 | 25 | 1012.9 |
| 20260902022701 | 68 | 26 | 5.0 | 7.0 | 0.00 | 0.00 | 0.00 | 25 | 1012.5 |
| 20260902022200 | 68 | 18 | 5.0 | 7.0 | 0.00 | 0.00 | 0.00 | 25 | 1012.5 |
| 20260902021702 | 68 | 28 | 7.0 | 7.0 | 0.00 | 0.00 | 0.00 | 25 | 1012.5 |
| 20260902021201 | 68 | 13 | 8.0 | 10.0 | 0.00 | 0.00 | 0.00 | 25 | 1012.5 |
| 20260902020700 | 68 | 356 | 6.0 | 7.0 | 0.00 | 0.00 | 0.00 | 25 | 1012.5 |
| 20260902020200 | 68 | 27 | 8.0 | 9.0 | 0.00 | 0.00 | 0.00 | 25 | 1012.5 |
| 20260902015700 | 68 | 20 | 7.0 | 9.0 | 0.00 | 0.00 | 0.00 | 26 | 1012.5 |
| 20260902015200 | 68 | 355 | 8.0 | 9.0 | 0.00 | 0.00 | 0.00 | 26 | 1012.5 |
| 20260902014701 | 68 | 31 | 9.0 | 9.0 | 0.00 | 0.00 | 0.00 | 26 | 1012.5 |
| 20260902014200 | 68 | 12 | 6.0 | 7.0 | 0.00 | 0.00 | 0.00 | 25 | 1012.5 |
| 20260902013700 | 68 | 22 | 7.0 | 8.0 | 0.00 | 0.00 | 0.00 | 25 | 1012.5 |
| 20260902013200 | 68 | 24 | 9.0 | 9.0 | 0.00 | 0.00 | 0.00 | 25 | 1012.2 |
| 20260902012701 | 68 | 19 | 7.0 | 8.0 | 0.00 | 0.00 | 0.00 | 24 | 1012.5 |
| 20260902012200 | 69 | 19 | 7.0 | 8.0 | 0.00 | 0.00 | 0.00 | 23 | 1012.5 |
| 20260902011700 | 68 | 106 | 3.0 | 3.0 | 0.00 | 0.00 | 0.00 | 23 | 1012.5 |
| 20260902011201 | 69 | 11 | 6.0 | 8.0 | 0.00 | 0.00 | 0.00 | 23 | 1012.2 |
| 20260902010702 | 69 | 21 | 6.0 | 7.0 | 0.00 | 0.00 | 0.00 | 23 | 1012.5 |
| 20260902010203 | 69 | 18 | 8.0 | 8.0 | 0.00 | 0.00 | 0.00 | 23 | 1012.5 |
| 20260902005700 | 69 | 24 | 6.0 | 6.0 | 0.00 | 0.00 | 0.00 | 22 | 1012.5 |
| 20260902005202 | 69 | 58 | 3.0 | 2.0 | 0.00 | 0.00 | 0.00 | 22 | 1012.2 |
| 20260902004701 | 69 | 51 | 3.0 | 3.0 | 0.00 | 0.00 | 0.00 | 23 | 1012.5 |
| 20260902004200 | 69 | 24 | 7.0 | 7.0 | 0.00 | 0.00 | 0.00 | 23 | 1012.5 |
| 20260902003702 | 70 | 23 | 4.0 | 5.0 | 0.00 | 0.00 | 0.00 | 22 | 1012.5 |
| 20260902003201 | 70 | 22 | 6.0 | 6.0 | 0.00 | 0.00 | 0.00 | 22 | 1012.2 |
| 20260902002700 | 70 | 17 | 5.0 | 5.0 | 0.00 | 0.00 | 0.00 | 22 | 1012.5 |
| 20260902002200 | 70 | 56 | 3.0 | 5.0 | 0.00 | 0.00 | 0.00 | 22 | 1012.2 |
| 20260902001702 | 70 | 28 | 4.0 | 5.0 | 0.00 | 0.00 | 0.00 | 22 | 1012.5 |
| 20260902001203 | 69 | 15 | 7.0 | 7.0 | 0.00 | 0.00 | 0.00 | 24 | 1012.2 |
| 20260902000700 | 68 | 20 | 7.0 | 9.0 | 0.00 | 0.00 | 0.00 | 26 | 1012.2 |
| 20260902000200 | 69 | 28 | 8.0 | 9.0 | 0.00 | 0.00 | 0.00 | 27 | 1012.2 |
| 20260901235700 | 69 | 31 | 6.0 | 6.0 | 0.00 | 0.00 | 0.00 | 24 | 1012.5 |
| 20260901235200 | 69 | 31 | 7.0 | 8.0 | 0.00 | 0.00 | 0.00 | 27 | 1012.2 |
| 20260901234703 | 69 | 24 | 10.0 | 11.0 | 0.00 | 0.00 | 0.00 | 27 | 1012.5 |
| 20260901234200 | 68 | 20 | 9.0 | 9.0 | 0.00 | 0.00 | 0.00 | 27 | 1012.2 |
| 20260901233700 | 68 | 16 | 12.0 | 14.0 | 0.00 | 0.00 | 0.00 | 31 | 1012.5 |
| 20260901233200 | 69 | 10 | 11.0 | 11.0 | 0.00 | 0.00 | 0.00 | 30 | 1012.5 |
| 20260901232700 | 68 | 10 | 9.0 | 10.0 | 0.00 | 0.00 | 0.00 | 29 | 1012.2 |
| 20260901232200 | 68 | 14 | 11.0 | 11.0 | 0.00 | 0.00 | 0.00 | 32 | 1012.2 |
| 20260901231702 | 68 | 7 | 9.0 | 10.0 | 0.00 | 0.00 | 0.00 | 32 | 1012.2 |
| 20260901231200 | 68 | 16 | 11.0 | 11.0 | 0.00 | 0.00 | 0.00 | 34 | 1012.2 |
| 20260901230702 | 69 | 28 | 9.0 | 10.0 | 0.00 | 0.00 | 0.00 | 34 | 1012.2 |
| 20260901230201 | 68 | 21 | 9.0 | 9.0 | 0.00 | 0.00 | 0.00 | 33 | 1012.5 |
| 20260901225700 | 68 | 188 | 9.0 | 11.0 | 0.00 | 0.00 | 0.00 | 36 | 1012.2 |
| 20260901225202 | 69 | 13 | 8.0 | 9.0 | 0.00 | 0.00 | 0.00 | 35 | 1012.5 |
| 20260901224700 | 68 | 48 | 4.0 | 5.0 | 0.00 | 0.00 | 0.00 | 33 | 1012.2 |
| 20260901224200 | 68 | 33 | 8.0 | 9.0 | 0.00 | 0.00 | 0.00 | 38 | 1012.2 |
| 20260901223700 | 69 | 25 | 9.0 | 10.0 | 0.00 | 0.00 | 0.00 | 37 | 1012.2 |
| 20260901223200 | 70 | 19 | 8.0 | 9.0 | 0.00 | 0.00 | 0.00 | 36 | 1012.2 |
| 20260901222700 | 70 | 9 | 7.0 | 8.0 | 0.00 | 0.00 | 0.00 | 33 | 1012.2 |
| 20260901222200 | 70 | 353 | 4.0 | 5.0 | 0.00 | 0.00 | 0.00 | 34 | 1012.5 |
| 20260901221700 | 69 | 18 | 5.0 | 5.0 | 0.00 | 0.00 | 0.00 | 33 | 1012.2 |
| 20260901221201 | 70 | 15 | 6.0 | 7.0 | 0.00 | 0.00 | 0.00 | 37 | 1012.5 |